#timestamp,LO_Frequency,Hit 
1504436415.5,286046998.9,N
1504436435.4,286046999.6,N
1504436455.2,286046996.7,N
1504436475.0,286046997.9,N
1504436475.9,286046997.9,N
1504436495.8,286046997.3,N
1504436515.6,286046995.7,N
1504436535.4,286046993.4,P
1504436555.3,286046996.0,N
1504436575.1,286046994.3,N
1504436576.0,286046994.3,N
1504436595.8,286046997.3,N
1504436615.7,286046996.9,N
1504436635.5,286046998.0,N
1504436655.3,286046997.8,N
1504436675.1,286046996.9,N
1504436695.9,286047000.2,N
1504436715.7,286046998.9,N
1504436735.5,286046998.0,N
1504436755.4,286046997.4,N
1504436775.2,286046994.9,N
1504436795.0,286046997.4,N
1504436795.9,286046997.4,N
1504436815.8,286046998.8,N
1504436835.6,286046995.1,N
1504436855.4,286046993.9,P
1504436875.3,286046996.7,N
1504436895.1,286046998.2,N
1504436915.8,286046996.7,N
1504436935.7,286046999.4,N
1504436955.5,286047000.4,N
1504436975.3,286047002.3,N
1504436995.2,286047003.3,N
1504437015.9,286047007.1,N
1504437035.7,286047005.1,N
1504437055.6,286047005.4,N
1504437075.4,286047007.2,N
1504437095.2,286047008.8,N
1504437115.1,286047006.8,N
1504437116.0,286047006.8,N
1504437135.8,286047004.6,N
1504437155.6,286047006.6,N
1504437175.5,286047006.8,N
1504437195.3,286047005.9,N
1504437215.1,286047005.1,N
1504437235.8,286047005.0,N
1504437255.7,286047007.3,N
1504437275.5,286047009.8,N
1504437295.3,286047012.3,N
1504437315.2,286047006.3,N
1504437335.0,286047008.4,N
1504437335.9,286047008.4,N
1504437355.7,286047007.1,N
1504437375.6,286047003.7,N
1504437395.4,286047007.0,N
1504437415.2,286047007.0,N
1504437435.1,286047006.4,N
1504437436.0,286047006.4,N
1504437455.8,286047006.5,N
1504437475.6,286047003.9,N
1504437495.5,286047003.5,N
1504437515.3,286047005.3,N
1504437535.1,286047008.7,P
1504437555.9,286046998.8,N
1504437575.7,286047001.1,N
1504437595.5,286046996.1,N
1504437615.4,286046999.0,N
1504437635.2,286046993.9,N
1504437655.0,286046994.1,N
1504437655.9,286046994.1,N
1504437675.8,286046997.4,N
1504437695.6,286046997.0,N
1504437715.4,286046996.0,N
1504437735.3,286046996.2,N
1504437755.1,286046993.9,N
1504437756.0,286046993.9,N
1504437775.8,286046991.8,N
1504437795.7,286046994.2,N
1504437815.5,286046994.3,N
1504437835.3,286046991.9,N
1504437855.1,286046992.4,N
1504437875.9,286046994.0,N
1504437895.7,286046999.0,N
1504437915.5,286046998.4,N
1504437935.4,286046998.4,N
1504437955.2,286046996.6,N
1504437975.0,286046996.5,N
1504437975.9,286046996.5,N
1504437995.8,286046994.0,N
1504438015.6,286046990.6,N
1504438035.4,286046988.7,N
1504438055.3,286046993.0,N
1504438075.1,286046994.5,N
1504438076.0,286046994.5,N
1504438095.8,286046994.5,N
1504438115.7,286046991.8,P
1504438135.5,286047004.4,N
1504438155.3,286047001.5,N
1504438175.2,286047004.3,N
1504438195.9,286047001.5,N
1504438215.7,286047005.6,N
1504438235.6,286047004.9,N
1504438255.4,286047005.6,N
1504438275.2,286047007.5,N
1504438295.1,286047006.7,N
1504438296.0,286047006.7,N
1504438315.8,286047004.5,N
1504438335.6,286047006.5,N
1504438355.5,286047004.5,N
1504438375.3,286047001.7,N
1504438395.1,286047004.8,N
1504438415.8,286047006.9,N
1504438435.7,286047004.4,N
1504438455.5,286046999.9,N
1504438475.3,286047003.9,N
1504438495.2,286047007.1,N
1504438515.0,286047006.6,N
1504438515.9,286047006.6,N
1504438535.7,286047009.0,N
1504438555.6,286047012.2,P
1504438575.4,286047010.5,N
1504438595.2,286047010.3,N
1504438615.1,286047008.1,N
1504438616.0,286047008.1,N
1504438635.6,286047006.7,N
1504438655.5,286047008.0,P
1504438675.3,286047000.1,N
1504438695.1,286047001.1,N
1504438715.9,286047000.7,N
1504438735.7,286046998.4,N
1504438755.5,286046999.4,N
1504438775.4,286047002.6,N
1504438795.2,286047000.9,N
1504438815.0,286046996.5,N
1504438815.9,286046996.5,N
1504438835.8,286046995.5,N
1504438855.6,286046993.4,N
1504438875.4,286046999.6,N
1504438895.3,286046997.4,N
1504438915.1,286046995.2,N
1504438916.0,286046995.2,N
1504438935.8,286046996.7,N
1504438955.7,286046997.0,N
1504438975.5,286046999.5,N
1504438995.3,286046999.5,N
1504439015.1,286046995.3,N
1504439035.9,286046997.2,N
1504439055.7,286046997.8,N
1504439075.5,286046997.9,N
1504439095.4,286046994.8,N
1504439115.2,286046993.7,N
1504439135.0,286046993.1,N
1504439135.9,286046993.1,N
1504439155.8,286046989.0,N
1504439175.6,286046990.4,N
1504439195.4,286046994.4,N
1504439215.3,286046994.4,N
1504439235.1,286046992.8,N
1504439236.0,286046992.8,N
1504439255.8,286046991.9,N
1504439275.7,286046990.7,P
1504439295.5,286046999.6,N
1504439315.3,286046997.2,N
1504439335.2,286046997.4,N
1504439355.9,286046996.8,N
1504439375.7,286047002.5,N
1504439395.6,286047001.3,N
1504439415.4,286047004.7,N
1504439435.2,286047001.8,N
1504439455.1,286047001.9,N
1504439456.0,286047001.9,N
1504439475.8,286047001.4,N
1504439495.6,286047000.3,N
1504439515.5,286047004.3,N
1504439535.3,286046998.1,N
1504439555.1,286047000.2,N
1504439575.9,286047000.5,N
1504439595.7,286047000.4,N
1504439615.5,286046999.4,N
1504439635.3,286046999.2,N
1504439655.2,286046998.2,N
1504439675.0,286047001.6,N
1504439675.9,286047001.6,N
1504439695.7,286047005.0,N
1504439715.6,286047007.1,N
1504439735.4,286047007.6,N
1504439755.2,286047004.1,N
1504439775.1,286047005.1,N
1504439776.0,286047005.1,N
1504439795.8,286047002.3,N
1504439815.6,286047001.8,N
1504439835.5,286047002.4,N
1504439855.3,286047004.4,N
1504439875.1,286047001.6,N
1504439895.9,286046999.6,N
1504439915.7,286046998.0,N
1504439935.5,286046997.2,N
1504439955.4,286046996.7,N
1504439975.2,286046996.8,N
1504439995.0,286046996.5,N
1504439995.9,286046996.5,N
